Regional Weather Roundup
Issued by NWS Cleveland, OH

Home | Current Version | Previous Version | Graphics & Text | Print | Product List | Glossary On
Versions: 1 2 3 4 5 6 7 8 9 10 11 12 13 14 15 16 17 18 19 20 21 22 23 24 25 26 27 28 29 30 31 32 33 34 35 36 37 38 39 40 41 42 43 44 45 46 47 48 49 50
000
ASUS41 KCLE 272202
RWRCLE
OHIO REGIONAL WEATHER ROUNDUP
NATIONAL WEATHER SERVICE CLEVELAND, OH
600 PM EDT SAT MAY 27 2017

NOTE: "FAIR" INDICATES FEW OR NO CLOUDS BELOW 12,000 FEET WITH NO
SIGNIFICANT WEATHER AND/OR OBSTRUCTIONS TO VISIBILITY.

OHZ001>008-015>018-024>027-034-035-043-044-272300-
   NORTHWEST OHIO

CITY           SKY/WX    TMP DP  RH WIND       PRES   REMARKS
DEFIANCE       CLOUDY    72  59  63 NE9       29.88S
FINDLAY        CLOUDY    74  59  59 NE13      29.86S
TOLEDO EXPRESS PTSUNNY   72  55  55 NE7       29.88F
TOLEDO EXEC    SUNNY     72  53  51 E9        29.89F
LIMA           PTSUNNY   75  64  68 NE6       29.85F
$$

OHZ009>014-019>023-028>033-038-089-272300-
   NORTHEAST OHIO

CITY           SKY/WX    TMP DP  RH WIND       PRES   REMARKS
CLE-HOPKINS    CLOUDY    71  51  49 NE13      29.91S
CLE-LAKEFRONT  MOSUNNY   64  56  75 NE9       29.90R
CUY CO. ARPT   MOSUNNY   72  52  49 NE12      29.92R
LORAIN-ELYRIA  CLOUDY    69  51  52 NE10      29.90S
ASHTABULA      SUNNY     68  50  52 VRB6      29.93R
AKRON-CANTON   PTSUNNY   74  58  57 N3        29.89S
WOOSTER        CLOUDY    73  60  63 NE6       29.89S
MANSFIELD      MOSUNNY   74  60  61 CALM      29.88F
YOUNGSTOWN     CLOUDY    72  55  55 CALM      29.90R
$$

OHZ042-051>053-060>062-070>072-077>081-272300-
  SOUTHWEST OHIO

CITY           SKY/WX    TMP DP  RH WIND       PRES   REMARKS
CINC-COVINGTON PTSUNNY   84  67  56 W10       29.83F
CINC-LUNKEN    CLOUDY    82  69  64 W9        29.82S
HAMILTON       SUNNY     84  68  58 SW7       29.82F
DAYTON         MOSUNNY   78  63  59 N6        29.85S
WRIGHT-PAT AFB MOSUNNY   80  67  64 NW8       29.83S
DAYTON GENERAL MOSUNNY   80  65  59 NW10      29.83S
WILMINGTON     MOSUNNY   80  67  64 VRB6      29.84S
$$

OHZ036-037-039>041-045>050-054>059-063>069-073>076-082>088-272300-
  CENTRAL AND SOUTHEAST OHIO

CITY           SKY/WX    TMP DP  RH WIND       PRES   REMARKS
COLUMBUS       PTSUNNY   79  66  64 N7        29.83S
OSU AIRPORT    MOSUNNY   78  66  66 NW6       29.84S
BOLTON FIELD   CLOUDY    79  68  69 NW8       29.85S
RICKENBACK AFB PTSUNNY   79  66  64 NW6       29.83R
NEWARK         MOSUNNY   79  64  60 NE5       29.84S
MARION         PTSUNNY   76  61  59 N8        29.86F
LANCASTER      PTSUNNY   82  67  60 N7        29.85R
ZANESVILLE     MOSUNNY   76  64  66 N6        29.86R
NEW PHILLY     NOT AVBL
$$




USA.gov is the U.S. government's official web portal to all federal, state and local government web resources and services.